sat.trackr.live / text

‹ back to catalog

STARLINK-30275

NORAD 57667 · 2023-124E

PAYLOAD ACTIVE UNKNOWN

§ Identity

Operator
Country
US
Launch date
2023-08-22
Launch site
AFWTR
Launch vehicle
Mass (kg)
RCS (m²)

Purposes: comms

External: N2YO · Heavens-Above · Gunter

§ Orbital elements

Epoch: 2026-05-24T14:24:12.798432Z

Period
94.11 min
Inclination
53.1591°
Eccentricity
0.0001119
Mean motion
15.30191676 rev/d
Perigee alt
474.5 km
Apogee alt
476.0 km
Semi-major
6,853.4 km
B*
3.6566e-5
RAAN
214.4738°
Arg perigee
79.7741°
Mean anomaly
280.3386°
Rev number
15,518

§ Raw data

STARLINK-302751 57667U 23124E   26144.60014813  .00000724  00000+0  36566-4 0  99952 57667  53.1591 214.4738 0001119  79.7741 280.3386 15.30191676155182

JSON: /api/v1/satellites/57667 · /tle

For live sub-satellite position, see the globe view (requires WebGL).

§ Visibility from observer

Set your observer location to see the next 7 days of passes ≥ 10°. The values pass through the URL so the page stays shareable.

No JS? Fill the form by hand. The geolocation button needs JavaScript.